Precipitable_Water
0.26 0.26 0.25 0.25 0.24 0.24 0.24 0.24 0.25 0.25 0.25 0.25 0.25 0.26 0.27 0.27 0.26 0.26 0.26 0.26 0.25 0.24 0.23 0.22 0.21 0.20 0.19 0.18 0.17 0.16 0.14 0.14 0.13 0.13 0.13 0.12 0.12 0.11 0.11 0.11 0.10 0.10 0.09 0.10 0.10 0.10 0.09 0.09 0.09 0.09 0.09 0.08 0.08 0.08 0.08 0.08 0.08 0.07 0.07 0.07 0.07 0.07 0.07
0.28 0.26 0.25 0.25 0.25 0.25 0.26 0.26 0.26 0.27 0.27 0.26 0.26 0.26 0.26 0.26 0.26 0.26 0.26 0.26 0.25 0.24 0.23 0.22 0.20 0.19 0.19 0.18 0.17 0.15 0.14 0.13 0.13 0.13 0.12 0.12 0.11 0.11 0.11 0.11 0.10 0.10 0.09 0.09 0.09 0.09 0.10 0.09 0.09 0.08 0.08 0.08 0.07 0.07 0.07 0.07 0.07 0.07 0.07 0.07 0.07 0.06 0.06
0.27 0.26 0.26 0.26 0.26 0.26 0.26 0.27 0.27 0.27 0.27 0.27 0.26 0.26 0.26 0.27 0.27 0.26 0.26 0.25 0.25 0.24 0.22 0.21 0.20 0.19 0.18 0.17 0.16 0.15 0.14 0.13 0.13 0.13 0.12 0.12 0.12 0.11 0.11 0.11 0.10 0.10 0.09 0.09 0.09 0.09 0.09 0.09 0.08 0.08 0.08 0.08 0.08 0.08 0.07 0.07 0.07 0.07 0.07 0.07 0.07 0.06 0.06
0.27 0.26 0.26 0.26 0.26 0.26 0.27 0.27 0.27 0.27 0.27 0.27 0.27 0.27 0.27 0.27 0.27 0.27 0.26 0.25 0.24 0.23 0.22 0.21 0.20 0.19 0.18 0.17 0.15 0.14 0.14 0.13 0.13 0.13 0.12 0.12 0.11 0.11 0.11 0.10 0.10 0.10 0.09 0.09 0.08 0.09 0.08 0.08 0.08 0.08 0.08 0.08 0.08 0.07 0.07 0.07 0.07 0.07 0.06 0.07 0.07 0.07 0.06
0.27 0.27 0.26 0.26 0.26 0.27 0.27 0.28 0.28 0.27 0.27 0.27 0.27 0.27 0.27 0.27 0.27 0.26 0.26 0.25 0.24 0.22 0.21 0.20 0.19 0.19 0.18 0.16 0.15 0.14 0.14 0.13 0.13 0.12 0.12 0.11 0.11 0.11 0.10 0.10 0.10 0.10 0.10 0.09 0.08 0.08 0.08 0.08 0.08 0.08 0.08 0.08 0.07 0.07 0.07 0.07 0.06 0.06 0.06 0.06 0.07 0.07 0.07
0.28 0.27 0.27 0.27 0.28 0.28 0.28 0.28 0.28 0.28 0.28 0.27 0.27 0.27 0.27 0.27 0.26 0.26 0.25 0.24 0.23 0.22 0.21 0.20 0.19 0.18 0.17 0.15 0.14 0.14 0.13 0.13 0.12 0.12 0.12 0.11 0.11 0.10 0.10 0.10 0.10 0.10 0.10 0.09 0.08 0.08 0.08 0.08 0.08 0.07 0.07 0.07 0.07 0.07 0.06 0.06 0.06 0.07 0.07 0.07 0.06 0.07 0.07
0.28 0.28 0.28 0.28 0.28 0.29 0.29 0.28 0.28 0.28 0.28 0.28 0.28 0.27 0.27 0.26 0.26 0.25 0.24 0.23 0.22 0.21 0.20 0.19 0.18 0.17 0.16 0.15 0.14 0.14 0.13 0.13 0.12 0.12 0.11 0.11 0.10 0.10 0.10 0.10 0.10 0.10 0.09 0.09 0.08 0.08 0.08 0.08 0.08 0.08 0.07 0.07 0.07 0.07 0.07 0.06 0.06 0.06 0.06 0.07 0.06 0.06 0.06
0.29 0.29 0.29 0.29 0.29 0.29 0.29 0.29 0.28 0.28 0.28 0.28 0.28 0.27 0.27 0.26 0.25 0.24 0.23 0.22 0.22 0.21 0.20 0.19 0.18 0.17 0.15 0.14 0.14 0.13 0.13 0.12 0.12 0.11 0.11 0.10 0.10 0.10 0.10 0.09 0.09 0.09 0.09 0.09 0.08 0.08 0.08 0.08 0.07 0.07 0.07 0.07 0.07 0.06 0.06 0.06 0.06 0.05 0.05 0.06 0.06 0.06 0.06
0.30 0.30 0.30 0.30 0.29 0.29 0.29 0.29 0.29 0.28 0.28 0.28 0.27 0.27 0.26 0.25 0.24 0.23 0.22 0.22 0.21 0.20 0.19 0.18 0.17 0.16 0.15 0.14 0.14 0.13 0.13 0.12 0.12 0.11 0.10 0.10 0.10 0.10 0.09 0.09 0.09 0.09 0.09 0.08 0.08 0.08 0.08 0.07 0.07 0.07 0.07 0.06 0.06 0.06 0.06 0.06 0.06 0.06 0.06 0.06 0.06 0.06 0.07
0.30 0.30 0.30 0.30 0.29 0.29 0.29 0.29 0.29 0.29 0.28 0.28 0.27 0.26 0.25 0.24 0.23 0.23 0.22 0.21 0.20 0.19 0.18 0.17 0.16 0.15 0.14 0.14 0.13 0.13 0.12 0.12 0.11 0.11 0.10 0.10 0.10 0.10 0.09 0.09 0.09 0.09 0.08 0.08 0.08 0.07 0.07 0.07 0.06 0.06 0.07 0.06 0.06 0.07 0.07 0.06 0.06 0.06 0.06 0.06 0.06 0.06 0.06
0.30 0.30 0.30 0.29 0.29 0.29 0.28 0.28 0.28 0.28 0.28 0.27 0.26 0.25 0.24 0.23 0.22 0.22 0.21 0.20 0.19 0.18 0.17 0.16 0.15 0.14 0.14 0.14 0.13 0.12 0.12 0.11 0.11 0.11 0.10 0.10 0.10 0.10 0.09 0.09 0.09 0.09 0.08 0.08 0.08 0.08 0.07 0.07 0.06 0.06 0.07 0.07 0.07 0.07 0.06 0.06 0.06 0.06 0.06 0.05 0.05 0.05 0.06
0.30 0.30 0.29 0.29 0.28 0.28 0.28 0.28 0.28 0.27 0.27 0.26 0.26 0.25 0.23 0.22 0.21 0.21 0.20 0.19 0.18 0.17 0.16 0.14 0.14 0.14 0.14 0.13 0.12 0.11 0.11 0.11 0.10 0.11 0.11 0.11 0.11 0.10 0.10 0.10 0.09 0.09 0.08 0.08 0.08 0.07 0.07 0.07 0.07 0.07 0.07 0.07 0.07 0.06 0.06 0.06 0.06 0.06 0.06 0.06 0.05 0.05 0.05
0.29 0.29 0.29 0.28 0.28 0.27 0.27 0.27 0.27 0.26 0.26 0.25 0.25 0.24 0.23 0.21 0.21 0.20 0.19 0.18 0.17 0.15 0.14 0.14 0.13 0.13 0.13 0.12 0.11 0.11 0.10 0.10 0.10 0.10 0.11 0.11 0.11 0.11 0.11 0.11 0.11 0.11 0.10 0.09 0.08 0.08 0.07 0.07 0.07 0.07 0.07 0.07 0.07 0.07 0.06 0.06 0.06 0.06 0.06 0.06 0.06 0.06 0.06
0.28 0.28 0.28 0.27 0.27 0.26 0.26 0.25 0.25 0.25 0.25 0.24 0.24 0.23 0.23 0.21 0.20 0.19 0.18 0.17 0.15 0.14 0.14 0.14 0.13 0.12 0.12 0.11 0.11 0.10 0.10 0.09 0.09 0.10 0.10 0.10 0.10 0.11 0.11 0.11 0.11 0.11 0.11 0.11 0.09 0.08 0.07 0.08 0.08 0.07 0.07 0.07 0.08 0.07 0.06 0.06 0.06 0.06 0.06 0.06 0.06 0.06 0.06
0.27 0.27 0.26 0.26 0.26 0.25 0.25 0.24 0.24 0.24 0.24 0.23 0.23 0.23 0.22 0.21 0.20 0.19 0.17 0.16 0.16 0.15 0.15 0.14 0.13 0.12 0.12 0.11 0.10 0.10 0.10 0.10 0.10 0.10 0.10 0.10 0.10 0.10 0.10 0.10 0.10 0.10 0.10 0.10 0.10 0.10 0.09 0.09 0.09 0.08 0.08 0.08 0.08 0.07 0.07 0.07 0.07 0.07 0.06 0.06 0.07 0.07 0.07
0.26 0.25 0.25 0.25 0.24 0.24 0.23 0.23 0.23 0.23 0.23 0.22 0.22 0.22 0.21 0.20 0.19 0.18 0.17 0.16 0.16 0.16 0.15 0.14 0.13 0.12 0.11 0.11 0.11 0.11 0.11 0.11 0.11 0.11 0.10 0.10 0.10 0.10 0.10 0.10 0.10 0.11 0.11 0.10 0.10 0.10 0.10 0.10 0.09 0.09 0.08 0.08 0.08 0.08 0.08 0.08 0.08 0.07 0.07 0.07 0.06 0.06 0.06
0.24 0.24 0.24 0.23 0.23 0.22 0.22 0.21 0.21 0.21 0.21 0.21 0.21 0.20 0.19 0.18 0.17 0.17 0.17 0.17 0.16 0.16 0.15 0.14 0.14 0.13 0.12 0.11 0.11 0.11 0.11 0.12 0.12 0.11 0.10 0.10 0.10 0.10 0.10 0.10 0.10 0.11 0.11 0.11 0.11 0.11 0.11 0.10 0.10 0.10 0.10 0.09 0.09 0.09 0.08 0.08 0.07 0.07 0.07 0.06 0.06 0.06 0.06
0.23 0.23 0.23 0.22 0.21 0.21 0.20 0.20 0.20 0.20 0.20 0.20 0.19 0.18 0.17 0.16 0.16 0.16 0.16 0.15 0.15 0.15 0.14 0.14 0.13 0.13 0.12 0.12 0.11 0.11 0.11 0.12 0.12 0.11 0.11 0.11 0.10 0.10 0.09 0.09 0.10 0.10 0.10 0.10 0.10 0.11 0.11 0.11 0.11 0.11 0.10 0.10 0.10 0.10 0.10 0.09 0.07 0.07 0.07 0.06 0.06 0.05 0.06
0.22 0.21 0.21 0.21 0.20 0.20 0.19 0.19 0.19 0.18 0.18 0.17 0.17 0.17 0.17 0.16 0.16 0.15 0.14 0.14 0.13 0.13 0.13 0.12 0.12 0.11 0.11 0.11 0.11 0.11 0.12 0.12 0.12 0.12 0.11 0.11 0.11 0.10 0.09 0.09 0.10 0.09 0.09 0.09 0.09 0.08 0.08 0.08 0.09 0.09 0.09 0.09 0.10 0.10 0.10 0.10 0.09 0.08 0.07 0.06 0.06 0.06 0.06
0.20 0.20 0.20 0.20 0.19 0.19 0.18 0.17 0.16 0.15 0.15 0.15 0.15 0.16 0.16 0.15 0.15 0.14 0.13 0.13 0.12 0.11 0.11 0.11 0.11 0.11 0.11 0.11 0.11 0.12 0.12 0.12 0.12 0.12 0.12 0.12 0.11 0.10 0.09 0.10 0.10 0.09 0.09 0.09 0.08 0.08 0.08 0.07 0.07 0.07 0.07 0.07 0.07 0.07 0.08 0.08 0.09 0.09 0.08 0.07 0.07 0.06 0.06
0.19 0.19 0.18 0.18 0.17 0.16 0.16 0.15 0.14 0.14 0.14 0.14 0.14 0.14 0.14 0.14 0.14 0.13 0.13 0.12 0.11 0.11 0.10 0.10 0.10 0.10 0.10 0.10 0.11 0.11 0.11 0.12 0.12 0.12 0.12 0.12 0.11 0.11 0.11 0.11 0.10 0.10 0.10 0.09 0.08 0.08 0.08 0.08 0.07 0.07 0.07 0.07 0.07 0.07 0.07 0.07 0.07 0.08 0.08 0.08 0.07 0.07 0.06
0.18 0.17 0.16 0.16 0.16 0.15 0.15 0.14 0.14 0.13 0.13 0.13 0.13 0.13 0.13 0.13 0.13 0.13 0.12 0.11 0.11 0.10 0.10 0.10 0.10 0.10 0.10 0.10 0.10 0.10 0.11 0.11 0.11 0.11 0.11 0.11 0.12 0.12 0.11 0.11 0.11 0.10 0.09 0.09 0.09 0.08 0.08 0.08 0.07 0.07 0.07 0.07 0.07 0.07 0.07 0.07 0.07 0.07 0.07 0.07 0.07 0.07 0.06
0.16 0.16 0.16 0.15 0.15 0.14 0.14 0.14 0.13 0.13 0.12 0.11 0.11 0.12 0.12 0.12 0.12 0.12 0.12 0.11 0.10 0.10 0.10 0.10 0.10 0.10 0.10 0.10 0.10 0.10 0.11 0.11 0.12 0.12 0.11 0.11 0.11 0.11 0.11 0.11 0.10 0.10 0.09 0.09 0.09 0.08 0.08 0.08 0.07 0.07 0.07 0.07 0.07 0.07 0.08 0.08 0.08 0.08 0.08 0.08 0.08 0.08 0.07
0.16 0.15 0.15 0.14 0.13 0.13 0.13 0.13 0.12 0.12 0.11 0.10 0.10 0.10 0.11 0.11 0.12 0.12 0.12 0.12 0.11 0.10 0.10 0.10 0.10 0.10 0.10 0.10 0.10 0.11 0.11 0.11 0.11 0.11 0.11 0.11 0.11 0.10 0.10 0.10 0.10 0.10 0.09 0.09 0.08 0.08 0.07 0.07 0.07 0.07 0.07 0.07 0.07 0.07 0.07 0.07 0.08 0.08 0.08 0.07 0.07 0.07 0.07
0.15 0.14 0.13 0.13 0.12 0.12 0.11 0.11 0.11 0.10 0.10 0.10 0.09 0.09 0.09 0.10 0.10 0.11 0.11 0.11 0.11 0.11 0.11 0.11 0.10 0.10 0.10 0.10 0.11 0.11 0.11 0.11 0.11 0.11 0.11 0.11 0.11 0.10 0.10 0.10 0.09 0.09 0.09 0.08 0.08 0.08 0.08 0.07 0.07 0.07 0.07 0.08 0.08 0.08 0.08 0.08 0.08 0.08 0.08 0.08 0.07 0.07 0.07
0.13 0.12 0.12 0.11 0.11 0.10 0.10 0.10 0.10 0.09 0.09 0.09 0.09 0.09 0.08 0.09 0.09 0.09 0.09 0.10 0.10 0.10 0.11 0.11 0.11 0.11 0.11 0.11 0.11 0.11 0.10 0.10 0.10 0.10 0.10 0.10 0.10 0.10 0.09 0.09 0.09 0.08 0.08 0.08 0.08 0.08 0.07 0.08 0.08 0.08 0.08 0.08 0.08 0.07 0.07 0.07 0.07 0.07 0.07 0.07 0.07 0.07 0.07
0.11 0.11 0.10 0.10 0.09 0.09 0.09 0.09 0.09 0.09 0.08 0.08 0.08 0.08 0.08 0.07 0.07 0.07 0.08 0.08 0.09 0.09 0.09 0.10 0.10 0.10 0.10 0.10 0.10 0.10 0.10 0.09 0.09 0.09 0.09 0.09 0.09 0.09 0.09 0.09 0.09 0.08 0.08 0.08 0.08 0.07 0.08 0.08 0.08 0.08 0.08 0.07 0.07 0.07 0.07 0.07 0.07 0.07 0.07 0.07 0.06 0.06 0.06
0.10 0.09 0.09 0.09 0.09 0.08 0.08 0.08 0.08 0.08 0.07 0.07 0.07 0.07 0.07 0.07 0.07 0.07 0.07 0.07 0.07 0.07 0.08 0.08 0.09 0.09 0.09 0.09 0.09 0.09 0.09 0.09 0.09 0.09 0.09 0.09 0.08 0.08 0.08 0.08 0.08 0.08 0.08 0.08 0.07 0.07 0.07 0.07 0.07 0.07 0.07 0.07 0.07 0.07 0.07 0.07 0.07 0.06 0.06 0.06 0.06 0.06 0.05
0.09 0.09 0.08 0.08 0.08 0.08 0.07 0.07 0.07 0.07 0.07 0.07 0.07 0.07 0.07 0.07 0.07 0.07 0.07 0.07 0.07 0.08 0.08 0.08 0.08 0.08 0.08 0.08 0.07 0.07 0.07 0.08 0.08 0.08 0.08 0.08 0.08 0.08 0.07 0.07 0.07 0.07 0.07 0.07 0.07 0.07 0.07 0.07 0.07 0.07 0.07 0.07 0.06 0.06 0.06 0.07 0.06 0.06 0.06 0.06 0.06 0.05 0.05
0.09 0.09 0.09 0.08 0.08 0.08 0.07 0.07 0.07 0.08 0.08 0.08 0.09 0.09 0.09 0.09 0.09 0.09 0.09 0.09 0.09 0.09 0.08 0.08 0.07 0.07 0.07 0.07 0.07 0.07 0.07 0.07 0.07 0.07 0.07 0.07 0.07 0.07 0.07 0.07 0.07 0.07 0.07 0.07 0.07 0.06 0.06 0.06 0.06 0.06 0.06 0.06 0.06 0.06 0.06 0.06 0.06 0.06 0.06 0.06 0.05 0.05 0.05
0.10 0.10 0.10 0.10 0.09 0.09 0.10 0.09 0.09 0.09 0.10 0.10 0.10 0.10 0.10 0.10 0.10 0.10 0.09 0.09 0.08 0.08 0.07 0.07 0.07 0.06 0.06 0.06 0.06 0.06 0.06 0.06 0.06 0.06 0.06 0.06 0.07 0.07 0.07 0.07 0.07 0.07 0.07 0.07 0.07 0.07 0.06 0.06 0.06 0.06 0.06 0.06 0.06 0.06 0.06 0.06 0.06 0.06 0.06 0.05 0.05 0.05 0.05
0.10 0.10 0.10 0.10 0.10 0.10 0.10 0.10 0.10 0.10 0.10 0.10 0.10 0.10 0.09 0.09 0.10 0.10 0.10 0.10 0.09 0.07 0.07 0.07 0.06 0.06 0.06 0.06 0.06 0.06 0.06 0.06 0.06 0.06 0.06 0.06 0.06 0.06 0.07 0.07 0.07 0.07 0.07 0.07 0.07 0.06 0.06 0.06 0.06 0.06 0.06 0.06 0.06 0.06 0.06 0.06 0.06 0.05 0.05 0.05 0.05 0.05 0.05
0.09 0.09 0.09 0.09 0.09 0.09 0.09 0.09 0.09 0.09 0.09 0.09 0.09 0.09 0.09 0.08 0.08 0.08 0.08 0.08 0.08 0.07 0.07 0.06 0.06 0.06 0.06 0.06 0.06 0.06 0.06 0.06 0.06 0.06 0.06 0.06 0.06 0.06 0.06 0.06 0.07 0.07 0.07 0.07 0.07 0.06 0.06 0.06 0.06 0.06 0.06 0.06 0.06 0.06 0.05 0.05 0.05 0.05 0.05 0.05 0.05 0.05 0.05
0.07 0.07 0.07 0.07 0.07 0.07 0.07 0.07 0.07 0.07 0.07 0.06 0.07 0.07 0.06 0.06 0.06 0.06 0.06 0.06 0.06 0.06 0.06 0.06 0.06 0.07 0.07 0.07 0.07 0.07 0.07 0.07 0.07 0.07 0.06 0.06 0.06 0.06 0.06 0.06 0.07 0.07 0.06 0.06 0.06 0.06 0.06 0.06 0.06 0.06 0.06 0.06 0.05 0.05 0.05 0.05 0.05 0.05 0.05 0.05 0.05 0.05 0.05
0.06 0.07 0.07 0.07 0.07 0.07 0.07 0.07 0.07 0.07 0.07 0.07 0.07 0.07 0.07 0.07 0.07 0.06 0.06 0.06 0.06 0.06 0.06 0.06 0.06 0.06 0.07 0.07 0.07 0.07 0.07 0.07 0.07 0.07 0.07 0.07 0.06 0.06 0.06 0.06 0.06 0.06 0.06 0.06 0.06 0.06 0.06 0.06 0.06 0.06 0.06 0.05 0.05 0.05 0.05 0.05 0.05 0.05 0.05 0.05 0.05 0.05 0.05
0.07 0.07 0.07 0.07 0.07 0.07 0.07 0.06 0.06 0.06 0.07 0.07 0.07 0.07 0.07 0.06 0.06 0.06 0.06 0.06 0.07 0.07 0.07 0.07 0.07 0.07 0.07 0.07 0.07 0.07 0.07 0.07 0.07 0.07 0.07 0.07 0.07 0.06 0.06 0.06 0.06 0.06 0.06 0.06 0.06 0.06 0.06 0.06 0.06 0.06 0.05 0.05 0.05 0.05 0.05 0.05 0.05 0.05 0.05 0.05 0.05 0.05 0.05
Wind_Speed
52 52 52 52 52 52 52 52 52 52 52 52 53 53 54 54 54 54 53 52 52 52 52 51 50 50 50 50 50 50 50 50 49 49 49 49 49 50 50 50 50 51 51 51 51 52 52 52 53 53 54 54 55 55 56 57 57 58 59 59 58 58 59
52 52 52 52 52 52 52 52 53 53 53 53 53 53 53 53 53 53 53 52 52 52 51 51 50 50 50 50 50 50 50 50 49 49 49 49 50 50 50 50 50 51 51 52 51 52 52 52 52 53 54 54 55 55 56 56 57 58 58 58 58 59 59
52 52 52 52 52 53 53 53 53 53 53 53 53 53 52 52 52 52 52 52 51 51 50 50 50 50 50 50 51 51 50 50 50 49 49 49 50 50 50 50 50 50 51 52 52 52 52 53 53 54 54 54 55 55 55 56 56 57 57 58 59 59 59
51 52 52 52 53 52 52 52 52 52 53 53 53 52 52 52 51 51 51 51 50 50 49 50 50 50 50 51 51 51 50 50 50 49 49 49 49 49 49 50 50 51 51 52 53 53 53 53 54 54 54 54 54 55 55 55 56 57 57 58 58 59 59
51 51 52 52 52 52 52 52 52 52 52 52 52 52 51 51 51 50 50 49 49 49 49 50 50 50 51 51 51 51 50 50 50 49 49 49 49 49 49 50 50 51 52 52 53 53 53 53 53 54 54 53 54 54 55 55 56 56 56 57 57 57 57
51 51 52 52 52 52 52 52 52 52 52 52 51 51 50 50 49 49 48 48 48 49 49 50 50 51 51 51 51 50 50 50 49 49 49 48 49 49 49 50 50 51 52 52 53 54 54 54 54 54 54 53 54 54 55 55 55 55 55 55 54 54 54
50 51 51 51 52 52 52 52 52 52 51 51 50 49 49 48 48 47 47 48 48 49 49 50 50 50 50 50 50 50 50 49 49 49 48 48 49 49 49 50 51 51 52 53 53 54 54 54 53 53 54 53 53 54 54 54 53 53 53 52 51 51 50
50 50 51 51 51 51 51 51 51 50 50 49 48 48 48 47 47 47 47 47 48 48 49 50 50 50 50 50 50 50 49 49 48 48 48 48 49 49 50 51 51 51 52 53 53 54 54 54 54 53 53 53 52 53 53 52 52 52 51 49 49 48 47
49 49 50 50 50 50 50 50 50 49 48 48 47 47 47 47 47 47 47 47 48 48 49 49 50 50 50 49 49 49 48 48 48 48 48 49 49 50 50 51 51 52 52 53 53 54 53 53 53 53 52 52 51 52 52 51 50 50 48 47 46 45 44
48 48 49 49 49 49 49 49 48 48 48 47 47 47 47 47 47 47 47 48 48 48 49 49 49 49 49 49 48 48 48 48 48 48 49 49 50 50 51 51 52 52 52 53 53 53 53 52 52 52 51 51 51 50 50 48 47 47 45 44 44 43 42
47 47 48 48 48 48 48 47 47 47 47 47 47 47 46 46 46 47 47 48 48 48 48 49 49 48 48 48 47 47 47 48 48 49 50 50 51 51 52 52 52 53 53 53 53 53 52 51 51 51 50 50 49 48 47 45 44 44 43 43 42 41 41
46 47 47 47 47 47 46 46 46 46 46 46 46 46 46 46 46 47 47 48 48 48 48 48 48 47 47 47 47 47 47 48 49 50 50 51 52 52 53 53 53 53 53 52 52 52 51 51 50 50 49 48 47 46 44 43 42 42 42 42 42 41 40
46 46 46 46 45 45 45 45 45 45 45 45 46 46 46 46 47 47 48 48 48 48 48 47 47 46 46 46 46 47 48 48 49 50 51 52 52 52 53 53 54 54 53 53 52 52 51 50 49 49 48 47 45 44 42 42 41 42 42 42 41 41 40
45 45 45 44 44 44 44 44 44 44 44 45 45 45 46 46 47 48 48 48 48 47 47 46 46 46 46 46 47 47 48 49 50 50 51 51 52 52 53 53 54 54 53 53 52 52 52 50 49 49 48 45 44 43 42 41 41 42 42 42 42 41 40
44 44 43 43 43 43 43 43 43 43 44 44 45 46 46 46 47 47 47 47 46 46 45 45 45 45 46 46 47 47 48 49 49 50 50 51 51 52 52 52 52 52 52 52 52 52 51 50 49 48 47 45 44 43 43 43 43 42 42 42 41 40 40
43 42 42 42 42 42 42 42 43 43 43 44 45 46 46 46 46 46 45 45 44 44 44 44 45 45 46 47 47 48 49 49 49 50 50 51 51 51 52 52 52 52 52 52 52 51 51 50 49 47 46 45 44 43 42 42 42 41 41 41 40 40 39
41 41 41 41 41 41 41 42 42 43 43 45 46 46 45 45 45 44 44 44 43 44 44 44 45 45 46 47 47 48 49 50 49 50 50 51 51 51 51 51 50 50 51 51 51 51 50 50 48 47 45 44 44 43 41 41 40 40 39 40 39 38 37
40 40 40 40 40 41 41 41 42 43 44 45 45 44 44 43 43 43 43 43 43 44 44 45 46 47 47 48 48 49 50 50 50 50 51 51 51 51 51 50 49 48 49 49 49 49 49 48 47 46 45 44 44 43 42 41 41 40 39 39 38 37 36
39 39 39 39 40 40 41 42 42 43 43 43 43 43 42 42 43 43 43 44 44 45 45 46 47 48 48 49 49 50 50 50 50 51 51 51 51 52 51 50 48 48 47 47 47 47 46 46 45 44 43 43 42 42 41 41 40 39 38 38 37 36 35
38 39 39 39 40 41 41 41 41 41 42 42 42 43 42 42 43 43 43 44 44 45 46 46 47 48 49 50 50 51 51 51 51 52 52 52 52 52 51 50 48 48 47 46 45 45 44 43 42 41 41 41 40 40 40 40 40 39 38 37 36 35 35
38 39 40 40 40 40 40 40 40 40 40 41 42 42 43 42 43 43 44 45 45 46 46 47 47 48 48 49 50 51 51 51 52 52 52 52 52 52 52 50 49 48 47 46 45 44 42 41 40 39 39 38 38 38 38 38 38 38 38 37 36 36 36
39 39 39 39 39 39 38 39 39 39 40 41 42 42 43 43 44 44 45 46 46 46 47 47 47 48 48 49 50 50 51 51 51 51 51 52 52 52 52 50 49 48 46 45 43 42 41 39 39 38 38 37 37 36 36 36 37 37 37 37 37 37 37
39 39 38 38 38 38 38 38 38 39 40 41 42 43 44 45 45 45 46 46 47 47 47 48 48 48 49 50 50 51 51 51 51 51 51 51 52 51 50 49 48 47 46 44 42 40 39 38 37 37 37 36 36 36 36 36 36 36 36 36 36 37 37
37 37 37 37 37 37 38 38 38 39 40 41 42 44 45 45 46 46 46 47 48 48 48 49 49 49 50 50 51 51 51 51 51 51 50 51 50 49 48 47 45 45 44 42 40 39 38 37 36 36 36 35 35 35 35 35 35 35 35 35 35 35 35
36 36 36 37 37 37 38 38 39 40 41 42 43 44 45 45 46 47 47 48 48 49 49 50 50 50 51 51 51 51 50 50 50 50 49 49 48 46 45 44 43 41 40 39 37 37 36 35 35 35 35 34 34 33 33 33 33 33 33 33 33 34 34
36 36 36 37 37 38 38 39 40 40 41 42 43 43 44 45 46 47 48 49 49 50 50 50 50 50 50 50 50 50 50 49 49 48 48 47 45 44 43 42 41 39 38 37 36 35 35 34 34 33 33 33 32 32 32 32 32 32 32 32 32 32 33
36 36 37 38 39 39 40 40 41 41 42 42 43 43 44 45 46 47 48 48 49 49 50 50 51 50 50 50 50 50 50 49 47 46 45 44 43 42 42 41 39 38 37 36 36 36 35 34 34 33 33 32 32 32 32 32 32 32 32 32 32 32 32
37 38 38 39 40 40 41 41 41 42 42 43 43 44 44 45 46 46 47 48 48 48 49 49 50 50 49 49 49 48 47 46 44 43 42 42 41 41 40 39 38 37 36 36 36 36 35 35 34 34 34 33 33 33 33 33 33 33 32 32 32 32 32
38 39 39 40 40 41 41 42 42 43 43 44 44 45 45 45 46 46 47 47 47 48 48 48 48 47 47 47 46 45 43 42 41 41 40 40 39 38 37 37 36 36 35 35 35 35 35 35 34 34 34 34 33 33 33 33 33 33 33 33 33 33 33
40 40 40 41 41 41 42 43 43 44 45 45 46 46 46 47 47 47 47 47 47 47 47 47 46 46 45 43 42 41 40 39 39 38 38 37 37 36 35 35 35 35 35 35 35 35 35 35 34 34 34 34 34 34 34 33 33 33 33 33 33 33 33
41 41 41 42 42 43 43 44 45 46 46 47 47 48 48 49 49 49 48 48 47 47 47 46 45 44 42 41 40 39 39 38 38 37 37 36 36 35 35 35 35 35 35 35 35 35 35 35 35 35 35 35 35 34 34 34 34 33 33 33 33 33 33
41 42 42 43 43 44 44 45 46 46 47 47 48 48 48 48 47 47 46 45 45 44 44 43 42 41 40 39 39 39 38 38 37 37 37 36 36 36 36 36 36 36 36 36 36 36 36 36 36 36 35 35 35 35 34 34 34 33 33 33 34 34 34
41 42 42 43 44 45 45 46 46 47 47 47 48 47 47 46 46 46 45 45 44 43 42 41 40 39 39 38 38 38 38 38 38 37 37 37 37 36 36 36 36 36 36 36 36 36 36 36 36 36 35 35 35 34 34 34 34 33 33 34 34 34 34
41 42 43 43 44 45 46 46 47 47 47 47 46 46 46 46 46 45 44 43 43 42 41 41 40 40 39 39 39 38 38 38 38 38 37 37 37 37 37 37 36 36 36 36 36 36 36 36 36 35 35 35 34 34 34 34 34 34 34 34 34 34 34
42 42 43 44 44 45 45 46 45 45 45 45 45 44 44 43 42 41 41 40 40 41 41 41 41 41 41 41 41 40 40 40 39 39 38 38 37 37 37 36 36 36 36 36 35 35 35 35 35 35 35 35 34 34 34 34 34 34 34 34 34 34 34
43 43 43 44 44 44 44 44 44 44 43 43 43 42 41 40 39 39 39 39 40 40 40 41 41 41 41 41 41 41 41 40 39 39 38 37 37 36 36 36 36 36 36 35 35 35 35 35 35 35 35 34 34 34 34 34 34 34 34 34 34 34 34
Wind_Direction
274 274 274 274 274 274 274 274 274 274 274 274 274 273 273 272 271 271 272 272 273 273 274 275 275 276 277 278 279 280 281 281 281 281 281 281 281 281 281 281 281 282 282 282 282 283 283 283 284 283 283 283 283 283 282 282 281 281 281 281 280 279 278
274 274 274 274 274 274 274 274 274 274 274 274 273 273 273 272 270 270 270 271 272 272 273 274 274 275 277 278 279 280 280 280 281 281 281 281 280 281 281 281 281 281 282 283 283 284 284 284 284 284 284 284 284 284 283 283 282 282 282 281 280 279 278
274 274 274 274 274 274 274 274 275 274 274 274 273 273 272 271 270 269 269 270 271 272 272 273 274 275 276 277 278 279 279 280 280 281 281 280 280 280 280 280 280 281 282 283 284 284 284 284 284 284 285 285 284 284 284 283 283 282 282 281 280 280 279
274 274 274 274 274 274 275 275 275 274 274 273 273 272 271 271 269 269 269 269 270 270 271 272 274 275 275 276 277 278 279 279 280 280 280 280 280 280 280 280 280 281 282 283 284 285 285 285 285 285 285 285 285 285 284 284 283 283 282 282 281 280 279
274 274 274 274 274 275 275 275 275 274 274 273 273 272 271 270 269 269 268 269 269 270 271 272 273 274 275 276 277 277 278 278 279 279 280 280 280 280 280 281 281 282 283 284 284 285 285 285 285 286 286 286 285 285 285 284 284 284 283 282 281 280 279
275 275 275 275 275 275 275 275 275 274 274 273 272 271 271 270 269 268 268 269 270 271 271 272 273 274 275 276 276 277 277 278 278 279 279 279 279 280 280 281 282 283 283 284 284 285 285 285 286 286 286 286 285 285 285 285 285 284 283 282 281 280 279
276 276 276 276 276 276 276 275 275 274 274 273 272 271 270 269 268 269 269 270 270 271 271 272 274 275 275 276 276 277 277 278 278 278 278 278 279 280 281 282 282 283 283 284 285 285 285 286 286 286 286 286 286 285 285 285 285 284 283 282 281 280 279
277 277 277 277 277 276 276 275 275 274 273 272 270 270 269 269 269 269 270 270 271 271 272 273 274 275 276 276 277 277 277 277 277 278 278 278 279 280 281 282 282 283 283 284 285 285 286 286 286 286 286 286 286 285 284 284 284 283 283 282 281 280 278
278 278 278 278 277 277 276 275 275 273 272 270 270 269 269 269 269 269 270 270 271 272 273 274 275 275 276 276 276 277 277 277 277 277 278 279 280 280 281 282 282 283 283 284 284 285 286 286 286 286 286 285 285 284 284 284 283 283 282 281 280 278 277
279 279 278 278 278 277 276 275 274 272 271 270 270 269 269 269 269 270 270 271 272 273 274 274 275 275 275 276 276 276 276 276 277 278 279 279 280 280 281 282 282 283 283 284 284 285 285 285 286 285 285 285 285 284 284 283 282 282 281 280 279 278 277
280 279 279 278 278 277 276 275 274 272 270 269 269 269 269 269 270 270 271 272 273 274 274 275 275 275 275 275 275 275 276 277 277 278 279 279 280 280 281 282 282 283 283 283 284 285 285 285 285 285 285 284 284 284 283 282 281 280 279 279 278 278 277
281 280 280 279 278 276 275 275 273 271 270 269 268 268 269 270 271 272 273 273 274 274 275 275 275 275 275 275 275 276 277 277 278 278 279 279 280 280 280 281 282 283 283 283 284 284 284 284 285 285 285 284 284 282 281 280 279 278 278 278 277 277 277
281 281 280 279 277 276 275 275 273 271 270 269 268 269 270 271 272 273 274 274 274 274 274 274 274 274 275 275 276 277 277 278 279 279 279 279 280 280 281 281 282 282 283 283 284 283 283 284 284 285 284 283 282 281 279 278 278 277 277 277 277 276 275
282 281 280 279 277 277 276 275 273 271 270 269 269 270 271 273 274 274 274 275 274 274 274 274 274 274 275 276 276 277 278 278 279 279 280 280 281 281 282 282 282 282 282 283 283 283 283 283 283 284 283 281 279 279 278 277 277 277 276 276 276 276 275
282 281 280 279 278 277 277 275 273 272 271 271 271 272 273 274 275 275 274 274 273 273 273 274 274 275 276 277 277 278 278 279 279 280 280 281 281 282 282 282 282 283 282 282 282 282 283 283 283 282 281 279 277 277 277 277 277 277 277 277 276 275 274
283 281 280 279 278 277 277 276 274 273 272 273 273 274 274 275 275 274 274 273 273 273 273 274 275 276 277 278 279 279 279 279 280 280 280 281 281 282 283 283 283 282 282 282 281 281 282 282 282 281 279 277 276 276 277 277 276 276 276 275 275 274 273
283 282 281 280 279 278 278 277 275 274 274 274 274 275 275 275 274 273 273 273 273 274 274 275 275 276 277 278 279 279 279 279 279 279 280 280 281 282 282 283 283 282 281 281 281 280 280 281 280 279 276 275 275 275 275 275 275 275 274 274 274 273 271
284 283 282 281 280 279 279 278 277 276 276 276 275 274 274 274 274 274 274 274 274 275 275 276 276 277 278 279 280 279 279 279 279 279 280 280 280 280 281 283 283 282 281 281 280 280 280 280 278 276 275 275 275 275 274 273 273 274 273 273 273 273 271
284 283 283 282 281 280 280 280 279 277 276 276 275 274 275 275 274 274 275 275 276 276 277 277 277 278 278 279 280 279 279 279 279 279 280 280 280 280 281 282 283 282 281 280 280 280 280 279 277 275 275 275 275 275 274 273 273 273 272 272 272 272 270
284 284 284 283 283 282 282 281 280 278 277 276 276 275 275 275 275 275 275 276 276 277 278 278 279 279 279 279 279 280 280 280 280 280 280 280 280 280 281 282 281 280 280 279 279 279 279 278 276 275 274 275 274 274 274 273 273 273 272 272 271 270 268
286 285 285 285 284 284 282 281 280 279 278 277 277 276 276 276 276 276 276 277 277 278 279 279 280 280 280 279 280 280 280 281 280 281 281 281 280 281 281 281 280 279 278 278 277 277 276 275 274 274 274 274 274 274 273 272 272 272 271 271 270 268 267
287 287 287 286 285 284 283 281 281 280 279 278 278 277 277 277 277 277 277 278 278 279 279 280 280 281 280 280 280 281 281 281 281 281 282 281 281 281 281 280 279 278 277 276 276 275 273 272 272 272 273 273 273 273 273 272 272 271 270 269 268 267 266
288 288 287 286 285 284 283 282 281 281 280 280 279 279 278 278 278 278 278 279 279 279 280 280 281 281 281 280 281 281 281 281 281 281 282 281 281 281 280 279 278 277 276 275 274 272 270 270 271 271 272 272 272 272 272 272 271 270 270 269 268 267 266
289 288 287 286 286 285 284 284 283 283 282 281 281 280 280 280 280 279 279 280 280 280 281 281 281 281 281 280 281 281 281 281 281 282 282 281 281 280 280 279 278 277 275 273 270 268 268 268 268 269 270 271 271 272 272 271 271 270 269 269 268 267 266
289 288 288 287 287 286 286 286 285 285 284 283 283 282 282 281 281 281 280 280 281 281 281 281 281 281 281 281 281 281 282 282 282 282 281 281 281 280 279 278 277 276 274 271 268 267 267 267 268 268 269 270 270 270 270 270 270 269 269 269 268 267 266
290 289 289 289 288 288 288 287 287 286 286 285 285 284 283 283 283 282 282 281 281 282 281 281 281 281 281 281 281 281 282 282 282 281 280 279 279 278 278 277 275 273 271 269 267 267 267 268 268 268 269 269 269 269 269 269 269 269 268 268 268 268 266
291 291 290 290 289 289 289 288 288 287 287 286 286 286 285 285 284 284 283 283 283 282 282 281 281 281 281 281 281 281 281 281 281 280 279 278 277 276 276 275 273 270 268 267 266 266 267 267 268 268 268 268 268 268 269 269 268 268 268 267 268 268 267
292 292 291 291 291 290 290 289 289 289 288 288 287 287 287 286 286 285 285 284 284 283 283 282 282 282 282 282 282 281 281 280 279 279 278 277 276 275 274 272 270 268 267 266 266 266 266 267 267 267 267 268 268 268 268 268 268 268 267 267 267 268 268
293 293 292 292 292 291 291 290 290 289 289 289 288 288 287 287 286 286 286 285 284 284 284 283 283 282 282 282 281 280 279 279 278 278 277 276 275 273 271 270 268 266 266 265 265 265 265 266 266 266 266 267 267 268 268 268 268 268 268 267 266 267 267
295 294 294 293 292 292 291 291 291 291 291 290 289 288 287 286 286 286 286 285 284 284 284 284 283 282 281 280 279 278 277 277 277 276 276 275 273 271 269 267 266 265 265 264 264 264 265 265 265 265 265 266 266 267 267 267 268 268 268 267 266 266 267
296 296 295 294 293 292 291 291 291 291 291 291 290 289 288 288 287 286 285 285 284 283 283 283 282 281 280 279 277 277 276 276 276 275 274 273 271 269 268 266 265 265 264 263 263 263 263 264 264 265 265 265 266 266 266 267 267 267 267 267 266 266 266
298 298 297 295 295 294 293 293 292 292 291 291 291 290 290 290 289 288 288 287 286 285 284 282 281 279 278 277 277 276 276 276 275 274 273 272 270 268 267 265 264 264 263 262 262 262 262 263 264 265 265 265 265 265 265 266 266 267 267 267 267 267 267
300 299 298 297 297 296 295 295 295 294 293 293 292 292 291 290 289 288 287 287 286 285 284 283 281 279 278 277 276 276 275 275 274 273 272 271 269 268 267 265 264 263 262 262 261 262 262 263 264 264 265 265 264 264 264 265 265 266 266 267 267 267 267
301 301 300 299 299 298 297 297 296 296 295 294 294 293 292 290 289 288 286 285 284 283 282 282 281 280 279 278 277 276 275 275 274 272 271 270 269 268 267 266 264 263 262 262 261 261 262 263 263 263 264 264 263 263 263 264 265 266 266 267 267 267 268
303 302 302 301 300 299 299 298 298 297 296 296 295 294 293 292 290 288 287 285 284 283 282 281 280 279 279 278 277 276 275 275 274 273 271 270 269 268 267 266 264 263 262 262 262 262 262 262 263 263 263 263 262 262 262 263 264 265 266 267 267 268 268
304 303 303 302 301 301 300 299 299 298 297 297 296 295 294 292 290 289 287 286 285 284 283 282 281 280 279 278 277 276 275 274 274 272 271 270 268 267 266 265 264 263 262 262 262 262 262 263 263 263 262 262 262 262 262 263 264 265 266 267 267 267 268